TimeEST,TemperatureF,Dew PointF,Humidity,Sea Level PressureIn,VisibilityMPH,Wind Direction,Wind SpeedMPH,Gust SpeedMPH,PrecipitationIn,Events,Conditions,WindDirDegrees,DateUTC
12:15 AM,48.2,46.4,93,29.74,10.0,SSE,6.9,-,0.03,,Overcast,150,2012-12-10 05:15:00
12:35 AM,48.2,46.4,93,29.72,9.0,SSE,9.2,-,0.03,,Overcast,150,2012-12-10 05:35:00
12:55 AM,48.2,46.4,93,29.71,2.5,SSE,8.1,-,0.05,,Overcast,150,2012-12-10 05:55:00
1:15 AM,48.2,46.4,93,29.70,7.0,SSE,6.9,-,0.07,,Overcast,160,2012-12-10 06:15:00
1:35 AM,48.2,48.2,100,29.69,5.0,SSE,9.2,-,0.15,,Overcast,160,2012-12-10 06:35:00
1:55 AM,50.0,48.2,94,29.68,8.0,South,9.2,-,0.23,,Overcast,180,2012-12-10 06:55:00
2:15 AM,51.8,50.0,94,29.67,9.0,South,8.1,-,0.06,,Overcast,170,2012-12-10 07:15:00
2:35 AM,51.8,50.0,94,29.66,7.0,SSE,6.9,-,0.14,,Overcast,160,2012-12-10 07:35:00
2:55 AM,51.8,50.0,94,29.65,6.0,South,5.8,-,0.27,,Overcast,170,2012-12-10 07:55:00
3:15 AM,51.8,51.8,100,29.65,7.0,South,9.2,-,0.06,,Overcast,180,2012-12-10 08:15:00
3:55 AM,53.6,53.6,100,29.64,10.0,SW,6.9,17.3,0.11,,Overcast,230,2012-12-10 08:55:00
4:15 AM,53.6,51.8,94,29.64,10.0,SW,9.2,-,N/A,,Overcast,220,2012-12-10 09:15:00
4:35 AM,53.6,51.8,94,29.63,10.0,SSW,15.0,21.9,N/A,,Overcast,210,2012-12-10 09:35:00
4:55 AM,53.6,51.8,94,29.62,10.0,SW,11.5,18.4,N/A,,Overcast,220,2012-12-10 09:55:00
5:15 AM,53.6,51.8,94,29.62,10.0,SW,10.4,17.3,N/A,,Mostly Cloudy,220,2012-12-10 10:15:00
5:35 AM,53.6,51.8,94,29.62,10.0,SSW,11.5,18.4,N/A,,Overcast,210,2012-12-10 10:35:00
5:55 AM,53.6,51.8,94,29.62,10.0,SSW,13.8,19.6,N/A,,Overcast,210,2012-12-10 10:55:00
6:15 AM,53.6,51.8,94,29.63,10.0,SW,12.7,21.9,N/A,,Overcast,220,2012-12-10 11:15:00
6:55 AM,53.6,50.0,88,29.62,6.0,SW,9.2,-,N/A,,Overcast,220,2012-12-10 11:55:00
7:15 AM,53.6,50.0,88,29.62,10.0,SW,11.5,-,N/A,,Overcast,230,2012-12-10 12:15:00
7:35 AM,53.6,51.8,94,29.62,10.0,SW,12.7,19.6,N/A,,Overcast,220,2012-12-10 12:35:00
8:15 AM,53.6,51.8,94,29.62,3.0,SSW,10.4,-,N/A,,Overcast,210,2012-12-10 13:15:00
8:35 AM,53.6,51.8,94,29.62,5.0,SW,10.4,-,N/A,,Overcast,220,2012-12-10 13:35:00
8:55 AM,53.6,51.8,94,29.62,3.0,SW,9.2,-,N/A,,Overcast,220,2012-12-10 13:55:00
9:15 AM,51.8,51.8,100,29.62,1.5,SW,10.4,-,0.01,,Overcast,220,2012-12-10 14:15:00
9:35 AM,48.2,46.4,93,29.63,3.0,WNW,6.9,-,0.03,,Overcast,290,2012-12-10 14:35:00
9:55 AM,48.2,44.6,87,29.64,3.0,West,9.2,-,0.04,,Overcast,270,2012-12-10 14:55:00
10:15 AM,48.2,44.6,87,29.64,5.0,West,5.8,-,N/A,,Overcast,260,2012-12-10 15:15:00
10:35 AM,46.4,44.6,93,29.63,5.0,West,6.9,-,N/A,,Overcast,280,2012-12-10 15:35:00
10:55 AM,46.4,44.6,93,29.63,5.0,WNW,4.6,-,N/A,,Overcast,290,2012-12-10 15:55:00
11:35 AM,46.4,44.6,93,29.61,5.0,NNW,5.8,-,0.01,,Overcast,330,2012-12-10 16:35:00
11:55 AM,44.6,42.8,93,29.60,6.0,NNW,8.1,16.1,0.02,,Overcast,330,2012-12-10 16:55:00
12:15 PM,42.8,41.0,93,29.60,10.0,NNW,5.8,-,N/A,,Overcast,330,2012-12-10 17:15:00
12:35 PM,42.8,41.0,93,29.59,5.0,NW,3.5,-,N/A,,Overcast,320,2012-12-10 17:35:00
12:55 PM,42.8,41.0,93,29.58,10.0,NW,3.5,-,N/A,,Overcast,320,2012-12-10 17:55:00
1:15 PM,42.8,41.0,93,29.58,10.0,NNW,4.6,-,N/A,,Overcast,330,2012-12-10 18:15:00
1:35 PM,42.8,39.2,87,29.58,10.0,NNW,5.8,-,N/A,,Overcast,330,2012-12-10 18:35:00
1:55 PM,41.0,39.2,93,29.60,5.0,WNW,6.9,-,0.06,,Overcast,300,2012-12-10 18:55:00
2:15 PM,41.0,39.2,93,29.59,10.0,NW,4.6,-,N/A,,Overcast,320,2012-12-10 19:15:00
2:35 PM,41.0,39.2,93,29.59,7.0,NW,10.4,-,N/A,,Overcast,310,2012-12-10 19:35:00
2:55 PM,41.0,39.2,93,29.60,5.0,NW,5.8,-,0.02,,Overcast,320,2012-12-10 19:55:00
3:15 PM,39.2,37.4,93,29.60,7.0,NW,8.1,17.3,0.01,,Overcast,320,2012-12-10 20:15:00
3:35 PM,39.2,37.4,93,29.61,10.0,NW,6.9,-,0.02,,Overcast,320,2012-12-10 20:35:00
3:55 PM,37.4,35.6,93,29.62,10.0,NW,8.1,-,0.03,,Mostly Cloudy,310,2012-12-10 20:55:00
4:15 PM,37.4,35.6,93,29.64,10.0,WNW,6.9,-,0.01,,Overcast,300,2012-12-10 21:15:00
4:35 PM,37.4,35.6,93,29.64,9.0,NW,9.2,-,0.02,,Overcast,310,2012-12-10 21:35:00
4:55 PM,37.4,33.8,87,29.64,8.0,NW,5.8,-,0.03,,Overcast,310,2012-12-10 21:55:00
5:15 PM,37.4,33.8,87,29.65,10.0,WNW,6.9,-,0.01,,Overcast,300,2012-12-10 22:15:00
5:35 PM,37.4,33.8,87,29.64,10.0,NW,4.6,-,0.01,,Overcast,310,2012-12-10 22:35:00
5:55 PM,37.4,33.8,87,29.66,8.0,WNW,4.6,-,0.01,,Overcast,300,2012-12-10 22:55:00
6:15 PM,37.4,35.6,93,29.67,7.0,WNW,5.8,-,N/A,,Mostly Cloudy,290,2012-12-10 23:15:00
6:35 PM,37.4,33.8,87,29.67,8.0,WNW,4.6,-,N/A,,Overcast,290,2012-12-10 23:35:00
6:55 PM,37.4,33.8,87,29.70,9.0,West,5.8,-,N/A,,Overcast,280,2012-12-10 23:55:00
7:15 PM,35.6,33.8,93,29.70,5.0,WNW,6.9,-,0.01,,Overcast,290,2012-12-11 00:15:00
7:35 PM,35.6,33.8,93,29.69,9.0,NW,5.8,-,0.02,,Overcast,310,2012-12-11 00:35:00
7:55 PM,35.6,33.8,93,29.70,10.0,WNW,4.6,-,0.02,,Overcast,290,2012-12-11 00:55:00
8:15 PM,35.6,33.8,93,29.71,9.0,WNW,5.8,-,0.01,,Mostly Cloudy,290,2012-12-11 01:15:00
8:35 PM,35.6,33.8,93,29.70,10.0,WNW,3.5,-,0.01,,Overcast,300,2012-12-11 01:35:00
8:55 PM,35.6,33.8,93,29.71,10.0,West,5.8,-,0.02,,Overcast,270,2012-12-11 01:55:00
9:15 PM,35.6,33.8,93,29.70,10.0,WNW,4.6,-,N/A,,Overcast,290,2012-12-11 02:15:00
9:55 PM,35.6,33.8,93,29.73,5.0,West,5.8,-,N/A,,Overcast,280,2012-12-11 02:55:00
10:15 PM,35.6,33.8,93,29.73,9.0,WNW,4.6,-,N/A,,Overcast,290,2012-12-11 03:15:00
10:35 PM,35.6,33.8,93,29.75,10.0,West,6.9,-,N/A,,Mostly Cloudy,280,2012-12-11 03:35:00
10:55 PM,33.8,32.0,93,29.76,10.0,WNW,4.6,-,N/A,,Overcast,300,2012-12-11 03:55:00
11:15 PM,33.8,32.0,93,29.77,10.0,WNW,4.6,-,N/A,,Overcast,300,2012-12-11 04:15:00
11:35 PM,33.8,30.2,87,29.77,6.0,WNW,3.5,-,N/A,,Overcast,300,2012-12-11 04:35:00
11:55 PM,33.8,32.0,93,29.78,6.0,West,3.5,-,N/A,,Mostly Cloudy,280,2012-12-11 04:55:00